When you browse on this site, cookies collect data to enhance your experience and personalize the content and advertising you see.
Visit our Privacy Policy to learn more. By continuing to use the site, you agree to this use of cookies and data.
  • In Hungary
  • List of Countries
  • For 7 days
  • Water Temperature
  • Weather Map
  • News
  • Weather Widgets
  • user-avatar
    Login

    Hourly Weather Uramita

    Today, 8 December, Sunday

    Time Temperature Precipitation Wind Pressure Humidity
    00:00 +20°C° 0.1 mm 0 mps 695 mmHg 98%
    01:00 +20°C° 0.1 mm 0 mps 695 mmHg 97%
    02:00 +20°C° 0 mm 0 mps 695 mmHg 97%
    03:00 +20°C° 0 mm 0 mps 695 mmHg 97%
    04:00 +19°C° 0 mm 0 mps 694 mmHg 97%
    05:00 +20°C° 0 mm 0 mps 695 mmHg 96%
    06:00 +22°C° 0 mm 1 mps 695 mmHg 96%
    07:00 +22°C° 0 mm 1 mps 695 mmHg 96%
    08:00 +24°C° 0 mm 1 mps 696 mmHg 88%
    09:00 +26°C° 0 mm 1 mps 696 mmHg 80%
    10:00 +28°C° 0 mm 1 mps 697 mmHg 72%
    11:00 +28°C° 0.6 mm 1 mps 696 mmHg 76%
    12:00 +28°C° 0.6 mm 1 mps 695 mmHg 79%
    13:00 +28°C° 0.6 mm 1 mps 694 mmHg 82%
    14:00 +27°C° 0.9 mm 1 mps 694 mmHg 85%
    15:00 +27°C° 0.9 mm 1 mps 693 mmHg 89%
    16:00 +26°C° 0.9 mm 1 mps 693 mmHg 92%
    17:00 +23°C° 0.3 mm 0 mps 693 mmHg 94%
    18:00 +22°C° 0.3 mm 0 mps 693 mmHg 96%
    19:00 +21°C° 0.3 mm 0 mps 693 mmHg 98%
    20:00 +21°C° 0.2 mm 0 mps 694 mmHg 98%
    21:00 +21°C° 0.2 mm 0 mps 694 mmHg 98%
    22:00 +21°C° 0.2 mm 0 mps 695 mmHg 98%
    23:00 +21°C° 0.1 mm 0 mps 694 mmHg 98%

    Tomorrow, 9 December, Monday

    Time Temperature Precipitation Wind Pressure Humidity
    00:00 +20°C° 0.1 mm 0 mps 694 mmHg 97%
    01:00 +20°C° 0.1 mm 0 mps 694 mmHg 97%
    02:00 +19°C° 0 mm 0 mps 693 mmHg 96%
    03:00 +21°C° 0 mm 1 mps 693 mmHg 96%
    04:00 +21°C° 0 mm 1 mps 693 mmHg 95%
    05:00 +21°C° 0 mm 1 mps 693 mmHg 94%
    06:00 +21°C° 0 mm 1 mps 694 mmHg 93%
    07:00 +21°C° 0 mm 1 mps 694 mmHg 92%
    08:00 +24°C° 0 mm 1 mps 695 mmHg 82%
    09:00 +27°C° 0 mm 1 mps 695 mmHg 72%
    10:00 +29°C° 0 mm 1 mps 696 mmHg 61%
    11:00 +29°C° 0.2 mm 1 mps 695 mmHg 64%
    12:00 +30°C° 0.2 mm 1 mps 694 mmHg 66%
    13:00 +30°C° 0.2 mm 1 mps 693 mmHg 68%
    14:00 +29°C° 0.6 mm 1 mps 693 mmHg 76%
    15:00 +28°C° 0.6 mm 1 mps 692 mmHg 83%
    16:00 +27°C° 0.6 mm 1 mps 691 mmHg 91%
    17:00 +26°C° 0.4 mm 1 mps 692 mmHg 94%
    18:00 +23°C° 0.4 mm 0 mps 692 mmHg 96%
    19:00 +22°C° 0.4 mm 0 mps 693 mmHg 99%
    20:00 +22°C° 0.2 mm 0 mps 693 mmHg 99%
    21:00 +22°C° 0.2 mm 0 mps 694 mmHg 99%
    22:00 +22°C° 0.2 mm 0 mps 694 mmHg 99%
    23:00 +22°C° 0.3 mm 0 mps 694 mmHg 98%

    Day after tomorrow, 10 December, Tuesday

    Time Temperature Precipitation Wind Pressure Humidity
    00:00 +22°C° 0.3 mm 0 mps 694 mmHg 98%
    01:00 +21°C° 0.3 mm 0 mps 693 mmHg 98%
    02:00 +21°C° 0.3 mm 0 mps 693 mmHg 98%
    03:00 +21°C° 0.3 mm 0 mps 693 mmHg 98%
    04:00 +21°C° 0.3 mm 0 mps 693 mmHg 98%
    05:00 +21°C° 0.2 mm 0 mps 693 mmHg 98%
    06:00 +21°C° 0.2 mm 0 mps 694 mmHg 97%
    07:00 +21°C° 0.2 mm 0 mps 694 mmHg 97%
    08:00 +23°C° 0.2 mm 0 mps 695 mmHg 91%
    09:00 +24°C° 0.2 mm 0 mps 695 mmHg 86%
    10:00 +26°C° 0.2 mm 0 mps 695 mmHg 80%
    11:00 +28°C° 0.9 mm 1 mps 695 mmHg 82%
    12:00 +28°C° 0.9 mm 1 mps 694 mmHg 83%
    13:00 +28°C° 0.9 mm 1 mps 694 mmHg 84%
    14:00 +28°C° 1.4 mm 1 mps 693 mmHg 88%
    15:00 +27°C° 1.4 mm 1 mps 692 mmHg 91%
    16:00 +26°C° 1.4 mm 1 mps 692 mmHg 94%
    17:00 +25°C° 0.9 mm 1 mps 692 mmHg 96%
    18:00 +22°C° 0.9 mm 0 mps 692 mmHg 97%
    19:00 +22°C° 0.9 mm 0 mps 693 mmHg 98%
    20:00 +21°C° 0.2 mm 0 mps 693 mmHg 98%
    21:00 +21°C° 0.2 mm 0 mps 694 mmHg 98%
    22:00 +21°C° 0.2 mm 0 mps 694 mmHg 98%
    23:00 +21°C° 0.1 mm 0 mps 694 mmHg 98%

    11 December, Wednesday

    Time Temperature Precipitation Wind Pressure Humidity
    00:00 +20°C° 0.1 mm 0 mps 693 mmHg 98%
    01:00 +20°C° 0.1 mm 0 mps 693 mmHg 97%
    02:00 +20°C° 0.1 mm 0 mps 693 mmHg 97%
    03:00 +20°C° 0.1 mm 0 mps 693 mmHg 97%
    04:00 +20°C° 0.1 mm 0 mps 693 mmHg 97%
    05:00 +21°C° 0.1 mm 0 mps 693 mmHg 96%
    06:00 +21°C° 0.1 mm 0 mps 694 mmHg 96%
    07:00 +21°C° 0.1 mm 0 mps 694 mmHg 95%
    08:00 +23°C° 0.2 mm 0 mps 695 mmHg 90%
    09:00 +25°C° 0.2 mm 0 mps 695 mmHg 84%
    10:00 +26°C° 0.2 mm 0 mps 696 mmHg 78%
    11:00 +28°C° 1.4 mm 1 mps 695 mmHg 82%
    12:00 +28°C° 1.4 mm 1 mps 694 mmHg 87%
    13:00 +27°C° 1.4 mm 1 mps 694 mmHg 91%
    14:00 +27°C° 1.8 mm 1 mps 693 mmHg 92%
    15:00 +26°C° 1.8 mm 1 mps 693 mmHg 94%
    16:00 +26°C° 1.8 mm 1 mps 692 mmHg 96%
    17:00 +25°C° 1.1 mm 1 mps 692 mmHg 96%
    18:00 +24°C° 1.1 mm 1 mps 693 mmHg 97%
    19:00 +21°C° 1.1 mm 0 mps 693 mmHg 98%
    20:00 +21°C° 0.6 mm 0 mps 693 mmHg 98%
    21:00 +21°C° 0.6 mm 0 mps 694 mmHg 98%
    22:00 +21°C° 0.6 mm 0 mps 694 mmHg 98%
    23:00 +21°C° 0.5 mm 0 mps 694 mmHg 97%

    12 December, Thursday

    Time Temperature Precipitation Wind Pressure Humidity
    00:00 +20°C° 0.5 mm 0 mps 693 mmHg 97%
    01:00 +20°C° 0.5 mm 0 mps 693 mmHg 97%
    02:00 +20°C° 0.2 mm 0 mps 693 mmHg 97%
    03:00 +20°C° 0.2 mm 0 mps 693 mmHg 97%
    04:00 +20°C° 0.2 mm 0 mps 693 mmHg 96%
    05:00 +20°C° 0.1 mm 0 mps 693 mmHg 96%
    06:00 +20°C° 0.1 mm 0 mps 693 mmHg 95%
    07:00 +20°C° 0.1 mm 0 mps 694 mmHg 95%
    08:00 +22°C° 0 mm 0 mps 694 mmHg 87%
    09:00 +24°C° 0 mm 0 mps 695 mmHg 80%
    10:00 +28°C° 0 mm 1 mps 695 mmHg 72%
    11:00 +28°C° 0.4 mm 1 mps 695 mmHg 74%
    12:00 +28°C° 0.4 mm 1 mps 694 mmHg 76%
    13:00 +28°C° 0.4 mm 1 mps 693 mmHg 78%
    14:00 +27°C° 0.6 mm 1 mps 693 mmHg 83%
    15:00 +27°C° 0.6 mm 1 mps 692 mmHg 88%
    16:00 +26°C° 0.6 mm 1 mps 692 mmHg 93%
    17:00 +25°C° 0.3 mm 1 mps 692 mmHg 95%
    18:00 +22°C° 0.3 mm 0 mps 692 mmHg 97%
    19:00 +21°C° 0.3 mm 0 mps 692 mmHg 99%
    20:00 +21°C° 0 mm 0 mps 693 mmHg 98%
    21:00 +20°C° 0 mm 0 mps 693 mmHg 98%
    22:00 +20°C° 0 mm 0 mps 694 mmHg 97%
    23:00 +20°C° 0 mm 0 mps 694 mmHg 97%

    13 December, Friday

    Time Temperature Precipitation Wind Pressure Humidity
    00:00 +20°C° 0 mm 0 mps 693 mmHg 97%
    01:00 +20°C° 0 mm 0 mps 693 mmHg 97%
    02:00 +20°C° 0 mm 0 mps 693 mmHg 96%
    03:00 +19°C° 0 mm 0 mps 693 mmHg 96%
    04:00 +19°C° 0 mm 0 mps 692 mmHg 96%
    05:00 +19°C° 0 mm 0 mps 693 mmHg 95%
    06:00 +22°C° 0 mm 1 mps 693 mmHg 94%
    07:00 +22°C° 0 mm 1 mps 694 mmHg 94%
    08:00 +24°C° 0 mm 1 mps 694 mmHg 83%
    09:00 +27°C° 0 mm 1 mps 695 mmHg 73%
    10:00 +29°C° 0 mm 1 mps 695 mmHg 62%
    11:00 +29°C° 0.2 mm 1 mps 695 mmHg 65%
    12:00 +29°C° 0.2 mm 1 mps 694 mmHg 68%
    13:00 +29°C° 0.2 mm 1 mps 693 mmHg 71%
    14:00 +28°C° 0.7 mm 1 mps 692 mmHg 78%
    15:00 +27°C° 0.7 mm 1 mps 692 mmHg 86%
    16:00 +26°C° 0.7 mm 1 mps 691 mmHg 94%
    17:00 +25°C° 0.9 mm 1 mps 692 mmHg 95%
    18:00 +22°C° 0.9 mm 0 mps 692 mmHg 97%
    19:00 +21°C° 0.9 mm 0 mps 692 mmHg 98%
    20:00 +21°C° 0.6 mm 0 mps 693 mmHg 98%
    21:00 +21°C° 0.6 mm 0 mps 693 mmHg 98%
    22:00 +20°C° 0.6 mm 0 mps 694 mmHg 97%
    23:00 +20°C° 0.1 mm 0 mps 694 mmHg 97%
    Show more